Dewpoint
56 56 56 57 57 57 58 58 58 58 58 58 59 59 59 59 57 51 34 32 42 59 56 23 22 25 22 20 17 21 19 18 20 25 25 46 44 46 47 49 54 57 59 62 68
56 56 57 57 58 57 57 57 57 57 58 58 58 58 58 59 49 39 47 60 62 59 20 22 19 26 22 15 14 17 19 21 22 23 21 46 43 45 43 48 52 56 64 66 66
56 57 57 57 57 57 57 57 57 57 58 58 58 58 58 57 34 27 59 64 64 50 24 26 28 27 19 16 13 19 14 19 17 22 23 43 44 43 41 45 50 56 64 64 64
56 56 57 57 57 57 57 57 57 57 58 57 57 58 58 48 23 23 68 66 64 30 23 25 25 25 20 16 17 11 13 12 13 18 32 44 44 40 42 42 49 57 64 63 62
56 56 56 56 57 57 57 57 57 57 57 57 57 58 46 27 20 30 64 62 32 24 21 23 23 26 31 16 15 21 13 14 15 14 43 43 42 40 46 50 54 58 64 63 60
56 56 56 56 56 56 56 56 56 56 57 57 58 58 35 16 23 29 39 34 29 26 26 25 30 25 19 16 13 14 14 14 12 16 28 35 29 37 42 53 58 60 62 64 58
56 55 55 56 56 56 56 56 55 56 57 57 58 51 33 17 28 32 30 26 30 28 24 27 26 17 16 12 16 15 11 11 11 11 16 24 24 25 39 53 56 60 62 63 60
56 55 55 56 56 57 57 56 56 56 57 57 58 44 22 25 34 33 27 24 24 27 27 23 20 15 14 16 14 13 12 10 11 11 16 26 27 26 45 49 52 60 61 62 60
55 55 55 55 56 57 56 56 56 57 56 58 45 31 18 36 27 22 29 26 19 16 20 14 14 13 13 12 10 9 14 15 10 12 11 14 15 17 34 48 46 49 58 58 51
55 55 55 55 55 56 55 55 55 55 54 52 43 28 25 26 27 21 23 21 16 16 17 17 15 12 12 9 7 8 9 12 10 10 17 15 31 35 29 33 38 44 47 50 51
54 54 54 55 55 55 48 39 33 30 35 19 24 24 24 27 28 19 19 17 18 17 14 18 16 15 16 12 12 13 13 13 12 18 27 32 36 39 41 41 36 45 48 50 52
54 54 54 55 55 54 47 34 37 30 34 32 25 25 27 28 27 27 21 17 19 18 21 19 19 18 19 14 15 14 18 18 20 23 31 33 32 36 41 43 44 43 48 51 54
53 53 54 54 53 43 34 35 38 38 32 31 29 28 28 28 27 23 17 20 20 19 20 19 20 21 22 19 19 20 18 20 18 20 24 23 26 34 37 43 49 50 49 53 54
53 53 53 53 37 28 37 37 40 37 33 34 34 32 26 21 21 22 19 20 23 22 20 20 21 21 20 21 21 19 22 22 20 24 20 25 15 29 35 44 50 52 53 54 54
52 53 53 52 26 34 37 42 39 40 26 34 29 26 21 19 22 21 23 22 25 23 23 22 25 21 20 23 24 22 25 29 27 22 22 24 22 26 36 39 48 51 54 55 55
52 52 52 44 39 35 41 41 38 35 30 32 22 19 19 19 20 21 23 26 28 25 27 27 29 25 25 27 26 29 26 26 28 25 21 25 28 26 34 38 48 52 54 55 56
52 51 50 45 30 41 41 37 27 31 34 24 20 20 18 21 21 24 26 31 25 25 25 27 28 29 29 26 28 25 24 22 22 23 22 30 31 32 36 41 49 52 54 55 55
51 50 47 44 43 44 38 29 30 30 33 31 26 25 23 31 28 27 28 30 33 30 29 26 25 28 30 28 26 24 23 22 20 22 21 30 29 30 44 50 52 53 49 44 45
49 43 43 41 44 40 34 24 20 34 34 30 27 29 28 32 31 34 35 34 33 33 27 27 27 31 33 35 28 27 23 26 25 28 25 27 34 36 43 44 46 39 39 41 41
43 40 40 41 43 37 27 27 34 38 33 31 29 32 28 31 30 33 34 37 35 37 34 31 25 31 35 35 33 32 31 28 29 24 23 27 31 32 37 35 38 37 39 39 39
32 29 32 41 41 37 33 29 31 32 34 32 30 30 33 33 32 34 35 36 35 38 36 34 30 27 32 32 34 32 32 33 32 30 26 26 28 36 34 34 35 36 38 38 39
31 26 28 36 28 35 29 33 35 35 35 35 35 35 34 34 32 32 33 36 38 38 34 38 33 29 29 34 35 34 34 34 32 29 31 29 29 35 34 34 35 36 38 40 40
33 36 43 38 28 31 33 33 31 30 33 32 33 33 34 32 29 33 36 40 39 36 35 32 29 25 27 25 28 35 36 37 36 32 29 27 28 35 35 35 36 37 38 39 42
38 35 39 37 35 34 30 28 25 30 35 37 36 35 33 35 36 36 38 39 40 42 47 41 30 26 28 27 30 34 36 35 35 31 31 29 32 35 37 38 38 39 41 42 41
42 40 40 34 34 33 33 31 30 29 34 35 34 38 34 34 35 35 37 38 36 44 41 35 30 33 33 33 37 37 35 35 33 33 31 33 35 38 38 40 41 42 41 39 42
41 43 43 38 38 31 36 34 34 34 34 33 35 39 37 36 34 34 35 34 36 37 39 37 33 37 35 37 36 34 34 35 34 35 32 33 36 40 40 41 39 39 42 42 39
44 45 42 38 36 36 37 37 36 36 34 37 37 39 38 39 40 42 40 37 35 35 33 34 35 32 29 35 32 29 34 33 34 36 35 32 35 40 39 41 41 43 40 39 39
Lifted_Index
11 11 11 11 12 12 12 12 11 11 11 11 11 11 11 10 10 9 9 9 9 9 10 10 9 9 9 8 7 6 4 4 3 3 2 1 -0 -0 -1 -4 -5 -5 -5 -6 -7
11 11 11 11 11 12 12 12 11 11 11 11 11 11 11 10 9 9 8 8 9 9 10 9 9 8 8 7 7 5 4 4 4 3 2 1 0 -0 -1 -4 -5 -5 -6 -6 -7
12 11 11 11 11 11 12 12 12 11 11 11 11 11 10 9 8 8 8 8 9 9 9 9 8 8 7 7 6 5 4 4 4 4 3 2 1 -0 -1 -3 -5 -5 -6 -7 -7
12 12 11 11 11 12 12 12 12 11 11 11 11 11 10 9 8 8 8 8 9 9 9 9 8 7 7 6 5 5 4 4 4 4 3 2 1 0 -1 -2 -4 -5 -7 -7 -7
12 12 12 12 12 12 12 12 12 11 11 11 11 11 10 8 8 8 8 8 9 9 9 8 8 7 6 6 5 4 4 4 4 3 3 2 1 0 -0 -2 -4 -5 -7 -7 -7
12 12 12 12 12 12 12 12 12 11 11 11 11 10 9 8 8 8 9 9 9 9 9 8 8 7 6 6 5 4 4 3 3 3 2 2 1 1 -0 -2 -4 -6 -7 -7 -7
12 12 12 11 11 11 11 11 11 11 11 11 11 10 9 8 8 8 9 9 9 9 8 8 8 7 6 5 5 4 3 3 2 3 3 2 1 1 -1 -3 -5 -6 -7 -7 -7
12 11 11 10 10 10 10 10 11 11 11 11 10 9 8 8 8 8 8 9 9 9 8 8 8 7 6 5 5 4 3 3 3 3 3 3 2 1 -1 -3 -5 -6 -7 -7 -7
11 10 10 10 9 9 9 9 9 10 10 10 9 8 8 8 8 8 8 8 8 8 8 7 7 6 6 5 4 4 3 3 2 2 2 2 2 1 -0 -3 -5 -6 -7 -7 -7
10 10 10 9 9 8 7 7 7 8 9 9 8 8 7 7 7 8 8 8 8 7 7 7 6 6 5 4 4 3 3 3 2 2 2 1 1 1 0 -2 -4 -5 -6 -6 -6
10 10 10 9 8 7 7 6 6 7 7 7 7 7 7 7 7 7 7 7 7 6 6 5 5 5 5 4 4 3 3 3 2 2 2 1 1 1 0 -2 -3 -4 -4 -4 -5
10 10 9 8 7 7 6 6 6 6 6 6 6 6 6 7 6 7 7 6 6 5 5 5 4 4 4 4 4 3 3 3 3 3 2 2 1 1 0 -1 -2 -2 -2 -3 -3
11 10 9 8 7 6 6 6 6 5 5 5 5 6 6 6 6 6 6 6 5 5 4 4 4 4 4 4 3 3 3 3 3 3 2 2 1 1 0 -0 -1 -1 -1 -2 -2
11 10 9 8 6 6 6 6 6 5 4 4 4 5 6 6 6 5 6 5 5 4 4 4 4 4 3 3 3 3 2 2 2 2 2 2 1 1 1 0 -1 -1 -1 -1 -2
11 11 9 8 6 5 5 5 5 4 3 3 4 5 5 5 5 5 5 5 4 4 4 3 3 3 3 3 3 2 2 2 2 2 2 2 1 1 1 1 -0 -1 -2 -2 -2
11 11 10 8 6 5 5 5 4 3 2 3 4 4 5 5 5 5 5 4 4 4 3 3 3 3 2 2 2 2 2 2 2 2 2 2 2 2 1 1 -0 -1 -2 -2 -2
11 10 10 8 6 5 4 4 3 2 2 3 4 4 4 4 4 4 4 4 3 3 3 2 2 2 2 1 2 2 2 2 1 1 1 2 2 2 1 1 -0 -1 -2 -2 -2
10 9 9 8 6 5 4 4 3 2 2 3 3 3 3 3 3 3 3 3 3 2 2 2 1 1 1 1 2 2 2 2 1 1 1 2 2 2 1 0 -1 -1 -2 -2 -2
9 7 6 6 5 4 4 4 3 3 3 3 3 3 3 2 2 2 2 2 2 2 2 1 1 1 1 1 2 2 2 2 1 1 1 2 2 2 1 0 -0 -1 -1 -1 -1
8 6 5 4 4 4 4 4 3 3 3 2 2 2 2 2 1 1 1 1 1 1 1 1 1 1 1 2 2 2 2 1 1 1 1 1 1 1 1 1 0 -0 -0 0 0
8 6 5 4 4 4 4 4 4 4 3 2 2 1 1 1 1 1 1 1 1 1 1 1 1 1 1 2 2 1 1 1 1 1 0 1 1 1 1 1 1 1 1 1 2
8 7 6 5 4 5 5 5 4 4 3 2 2 2 1 1 1 1 1 1 1 1 1 1 1 1 1 2 1 1 1 1 1 1 1 1 1 1 1 1 2 2 2 2 3
8 7 6 5 5 5 5 5 5 4 3 3 2 2 2 2 1 1 1 1 1 1 1 1 1 1 1 1 1 1 1 1 2 1 1 1 1 1 1 1 2 2 2 3 3
7 6 6 5 5 5 5 5 5 4 3 2 2 2 2 2 2 1 1 1 1 1 1 1 1 1 1 1 1 1 1 1 2 2 1 1 0 0 1 1 2 2 3 3 3
7 6 5 5 5 5 5 5 4 3 3 2 2 2 2 2 2 2 1 1 1 1 1 1 1 1 1 1 1 1 1 1 2 2 1 1 0 0 1 2 2 2 3 3 3
7 6 6 6 6 5 5 5 4 3 3 2 2 2 2 2 2 2 2 1 1 1 1 1 1 1 1 2 1 2 2 2 2 2 1 1 1 1 2 2 3 3 3 3 3
7 7 6 6 6 5 5 5 4 4 3 2 2 2 2 2 2 2 2 2 1 1 1 1 1 1 2 2 2 2 2 2 2 1 1 1 1 2 2 2 3 3 3 3 3